sat.trackr.live / text

‹ back to catalog

STARLINK-32904

NORAD 63198 · 2025-048R

PAYLOAD ACTIVE UNKNOWN

§ Identity

Operator
Country
US
Launch date
2025-03-13
Launch site
AFETR
Launch vehicle
Mass (kg)
RCS (m²)

Purposes: comms

External: N2YO · Heavens-Above · Gunter

§ Orbital elements

Epoch: 2026-09-19T17:45:56.408544Z

Period
94.27 min
Inclination
43.0001°
Eccentricity
0.0003392
Mean motion
15.27588434 rev/d
Perigee alt
480.7 km
Apogee alt
485.4 km
Semi-major
6,861.2 km
B*
4.2612e-4
RAAN
69.0739°
Arg perigee
276.4350°
Mean anomaly
83.6115°
Rev number
8,677

§ Raw data

STARLINK-329041 63198U 25048R   26262.74023621  .00011486  00000+0  42612-3 0  99962 63198  43.0001  69.0739 0003392 276.4350  83.6115 15.27588434 86774

JSON: /api/v1/satellites/63198 · /tle

For live sub-satellite position, see the globe view (requires WebGL).

§ Visibility from observer

Set your observer location to see the next 7 days of passes ≥ 10°. The values pass through the URL so the page stays shareable.

No JS? Fill the form by hand. The geolocation button needs JavaScript.